Time,TemperatureF,DewpointF,PressureIn,WindDirection,WindDirectionDegrees,WindSpeedMPH,WindSpeedGustMPH,Humidity,HourlyPrecipIn,Conditions,Clouds,dailyrainin,SolarRadiationWatts/m^2,SoftwareType,DateUTC
2013-06-19 00:01:00,67.0,27.0,29.64,East,95,7.0,10.0,22,0.00,,,-99.99,-0.100000,,2013-06-19 06:01:00,
2013-06-19 00:11:00,68.0,26.0,29.63,East,97,7.0,10.0,20,0.00,,,-99.99,-0.100000,,2013-06-19 06:11:00,
2013-06-19 00:21:00,69.0,25.0,29.63,East,87,7.0,10.0,19,0.00,,,-99.99,-0.100000,,2013-06-19 06:21:00,
2013-06-19 00:33:00,68.0,27.0,29.63,East,90,10.0,12.0,21,0.00,,,-99.99,-0.100000,,2013-06-19 06:33:00,
2013-06-19 00:42:00,68.0,27.0,29.62,ESE,121,7.0,10.0,21,0.00,,,-99.99,0.000000,,2013-06-19 06:42:00,
2013-06-19 00:52:00,68.0,29.0,29.61,ESE,115,10.0,13.0,23,0.00,,,-99.99,0.000000,,2013-06-19 06:52:00,
2013-06-19 01:01:00,67.0,31.0,29.61,East,99,10.0,13.0,26,0.00,,,-99.99,0.000000,,2013-06-19 07:01:00,
2013-06-19 01:11:00,67.0,31.0,29.61,ESE,115,8.0,12.0,26,0.00,,,-99.99,0.100000,,2013-06-19 07:11:00,
2013-06-19 01:22:00,66.0,29.0,29.62,SW,223,13.0,21.0,25,0.00,,,-99.99,-0.200000,,2013-06-19 07:22:00,
2013-06-19 01:33:00,69.0,31.0,29.64,SSW,199,15.0,25.0,24,0.00,,,-99.99,0.000000,,2013-06-19 07:33:00,
2013-06-19 01:43:00,65.0,40.0,29.64,SSW,208,18.0,27.0,39,0.00,,,-99.99,0.000000,,2013-06-19 07:43:00,
2013-06-19 01:53:00,63.0,42.0,29.65,SSW,204,18.0,29.0,45,0.00,,,-99.99,-0.100000,,2013-06-19 07:53:00,
2013-06-19 02:01:00,63.0,43.0,29.65,SSW,208,18.0,30.0,48,0.00,,,-99.99,0.000000,,2013-06-19 08:01:00,
2013-06-19 02:11:00,61.0,43.0,29.66,SSW,211,17.0,26.0,52,0.00,,,-99.99,0.000000,,2013-06-19 08:11:00,
2013-06-19 02:22:00,60.0,43.0,29.66,SSW,211,17.0,24.0,52,0.00,,,-99.99,-0.100000,,2013-06-19 08:22:00,
2013-06-19 02:33:00,60.0,41.0,29.67,SW,216,19.0,27.0,50,0.00,,,-99.99,-0.200000,,2013-06-19 08:33:00,
2013-06-19 02:42:00,60.0,41.0,29.67,SSW,212,17.0,25.0,49,0.00,,,-99.99,-0.200000,,2013-06-19 08:42:00,
2013-06-19 02:53:00,60.0,40.0,29.68,SSW,207,16.0,23.0,48,0.00,,,-99.99,-0.100000,,2013-06-19 08:53:00,
2013-06-19 03:02:00,60.0,40.0,29.68,SSW,203,15.0,23.0,47,0.00,,,-99.99,-0.100000,,2013-06-19 09:02:00,
2013-06-19 03:11:00,60.0,39.0,29.69,SSW,204,15.0,23.0,46,0.00,,,-99.99,0.000000,,2013-06-19 09:11:00,
2013-06-19 03:22:00,60.0,39.0,29.69,SSW,201,16.0,23.0,45,0.00,,,-99.99,-0.100000,,2013-06-19 09:22:00,
2013-06-19 03:34:00,60.0,38.0,29.69,SSW,205,18.0,29.0,44,0.00,,,-99.99,0.000000,,2013-06-19 09:34:00,
2013-06-19 03:43:00,60.0,37.0,29.69,SSW,205,17.0,27.0,42,0.00,,,-99.99,0.100000,,2013-06-19 09:43:00,
2013-06-19 03:53:00,60.0,37.0,29.70,SSW,204,16.0,22.0,42,0.00,,,-99.99,-0.200000,,2013-06-19 09:53:00,
2013-06-19 04:01:00,60.0,37.0,29.70,SSW,202,17.0,24.0,41,0.00,,,-99.99,0.000000,,2013-06-19 10:01:00,
2013-06-19 04:11:00,60.0,36.0,29.70,SSW,201,14.0,21.0,40,0.00,,,-99.99,0.000000,,2013-06-19 10:11:00,
2013-06-19 04:22:00,60.0,36.0,29.71,South,171,6.0,11.0,41,0.00,,,-99.99,-0.100000,,2013-06-19 10:22:00,
2013-06-19 04:33:00,60.0,36.0,29.71,East,96,6.0,11.0,41,0.00,,,-99.99,-0.100000,,2013-06-19 10:33:00,
2013-06-19 04:42:00,59.0,36.0,29.72,ENE,73,4.0,6.0,42,0.00,,,-99.99,0.100000,,2013-06-19 10:42:00,
2013-06-19 04:52:00,58.0,37.0,29.72,ESE,109,8.0,13.0,45,0.00,,,-99.99,0.100000,,2013-06-19 10:52:00,
2013-06-19 05:01:00,58.0,35.0,29.72,ESE,107,12.0,20.0,42,0.00,,,-99.99,-0.100000,,2013-06-19 11:01:00,
2013-06-19 05:11:00,59.0,35.0,29.72,ESE,104,12.0,16.0,41,0.00,,,-99.99,-0.100000,,2013-06-19 11:11:00,
2013-06-19 05:22:00,58.0,35.0,29.72,ESE,112,11.0,15.0,41,0.00,,,-99.99,0.100000,,2013-06-19 11:22:00,
2013-06-19 05:32:00,56.0,37.0,29.73,SE,131,9.0,11.0,48,0.00,,,-99.99,-0.100000,,2013-06-19 11:32:00,
2013-06-19 05:42:00,56.0,37.0,29.74,SE,129,10.0,13.0,48,0.00,,,-99.99,0.100000,,2013-06-19 11:42:00,
2013-06-19 05:54:00,56.0,37.0,29.74,SE,139,9.0,12.0,48,0.00,,,-99.99,0.100000,,2013-06-19 11:54:00,
2013-06-19 06:01:00,55.0,37.0,29.74,SSE,150,9.0,16.0,49,0.00,,,-99.99,0.400000,,2013-06-19 12:01:00,
2013-06-19 06:11:00,56.0,36.0,29.74,SSE,162,12.0,18.0,45,0.00,,,-99.99,3.100000,,2013-06-19 12:11:00,
2013-06-19 06:22:00,58.0,34.0,29.74,South,169,14.0,18.0,41,0.00,,,-99.99,8.700000,,2013-06-19 12:22:00,
2013-06-19 06:34:00,58.0,34.0,29.74,South,185,13.0,18.0,40,0.00,,,-99.99,24.799999,,2013-06-19 12:34:00,
2013-06-19 06:44:00,58.0,34.0,29.74,South,187,13.0,19.0,40,0.00,,,-99.99,48.400002,,2013-06-19 12:44:00,
2013-06-19 06:52:00,58.0,34.0,29.74,South,190,13.0,18.0,41,0.00,,,-99.99,60.500000,,2013-06-19 12:52:00,
2013-06-19 07:02:00,58.0,35.0,29.74,South,188,13.0,18.0,41,0.00,,,-99.99,92.400002,,2013-06-19 13:02:00,
2013-06-19 07:11:00,59.0,35.0,29.74,SSW,193,14.0,21.0,40,0.00,,,-99.99,110.400002,,2013-06-19 13:11:00,
2013-06-19 07:22:00,59.0,35.0,29.74,SSW,196,13.0,20.0,41,0.00,,,-99.99,136.899994,,2013-06-19 13:22:00,
2013-06-19 07:33:00,59.0,35.0,29.75,South,190,13.0,19.0,40,0.00,,,-99.99,164.699997,,2013-06-19 13:33:00,
2013-06-19 07:42:00,60.0,36.0,29.75,SSW,195,12.0,20.0,40,0.00,,,-99.99,232.600006,,2013-06-19 13:42:00,
2013-06-19 07:53:00,60.0,36.0,29.75,SSW,194,13.0,17.0,40,0.00,,,-99.99,248.500000,,2013-06-19 13:53:00,
2013-06-19 08:01:00,60.0,36.0,29.75,SSW,194,12.0,18.0,40,0.00,,,-99.99,265.799988,,2013-06-19 14:01:00,
2013-06-19 08:11:00,61.0,37.0,29.75,SSW,192,12.0,18.0,40,0.00,,,-99.99,317.000000,,2013-06-19 14:11:00,
2013-06-19 08:22:00,62.0,37.0,29.75,SSW,201,11.0,19.0,40,0.00,,,-99.99,350.399994,,2013-06-19 14:22:00,
2013-06-19 08:33:00,62.0,37.0,29.76,SSW,200,13.0,20.0,39,0.00,,,-99.99,397.299988,,2013-06-19 14:33:00,
2013-06-19 08:43:00,63.0,37.0,29.76,SSW,203,11.0,19.0,39,0.00,,,-99.99,432.299988,,2013-06-19 14:43:00,
2013-06-19 08:52:00,63.0,37.0,29.76,SSW,202,13.0,18.0,38,0.00,,,-99.99,466.600006,,2013-06-19 14:52:00,
2013-06-19 09:01:00,63.0,37.0,29.76,SSW,201,13.0,19.0,38,0.00,,,-99.99,500.299988,,2013-06-19 15:01:00,
2013-06-19 09:11:00,63.0,37.0,29.76,SSW,202,12.0,18.0,38,0.00,,,-99.99,516.700012,,2013-06-19 15:11:00,
2013-06-19 09:22:00,63.0,38.0,29.76,SSW,202,13.0,18.0,39,0.00,,,-99.99,533.400024,,2013-06-19 15:22:00,
2013-06-19 09:33:00,63.0,38.0,29.76,SSW,199,13.0,19.0,39,0.00,,,-99.99,566.000000,,2013-06-19 15:33:00,
2013-06-19 09:42:00,64.0,39.0,29.76,SSW,203,13.0,19.0,40,0.00,,,-99.99,627.599976,,2013-06-19 15:42:00,
2013-06-19 09:52:00,64.0,40.0,29.76,SSW,212,13.0,20.0,40,0.00,,,-99.99,658.299988,,2013-06-19 15:52:00,
2013-06-19 10:01:00,65.0,41.0,29.77,SSW,200,13.0,19.0,41,0.00,,,-99.99,688.299988,,2013-06-19 16:01:00,
2013-06-19 10:11:00,65.0,41.0,29.77,SSW,206,14.0,17.0,41,0.00,,,-99.99,703.299988,,2013-06-19 16:11:00,
2013-06-19 10:22:00,65.0,40.0,29.76,SW,221,14.0,19.0,40,0.00,,,-99.99,718.799988,,2013-06-19 16:22:00,
2013-06-19 10:33:00,66.0,40.0,29.76,SW,215,13.0,18.0,39,0.00,,,-99.99,747.400024,,2013-06-19 16:33:00,
2013-06-19 10:43:00,66.0,39.0,29.76,SW,220,11.0,16.0,37,0.00,,,-99.99,787.400024,,2013-06-19 16:43:00,
2013-06-19 10:52:00,67.0,40.0,29.76,SW,219,12.0,18.0,38,0.00,,,-99.99,813.000000,,2013-06-19 16:52:00,
2013-06-19 11:02:00,67.0,40.0,29.76,SW,220,11.0,18.0,38,0.00,,,-99.99,825.000000,,2013-06-19 17:02:00,
2013-06-19 11:11:00,67.0,39.0,29.76,SW,220,15.0,22.0,36,0.00,,,-99.99,862.000000,,2013-06-19 17:11:00,
2013-06-19 11:22:00,67.0,37.0,29.76,SW,225,18.0,27.0,34,0.00,,,-99.99,875.000000,,2013-06-19 17:22:00,
2013-06-19 11:33:00,67.0,37.0,29.76,SW,226,18.0,26.0,33,0.00,,,-99.99,899.000000,,2013-06-19 17:33:00,
2013-06-19 11:43:00,67.0,37.0,29.77,SW,223,17.0,24.0,33,0.00,,,-99.99,938.000000,,2013-06-19 17:43:00,
2013-06-19 11:53:00,67.0,35.0,29.77,WSW,237,14.0,20.0,31,0.00,,,-99.99,956.000000,,2013-06-19 17:53:00,
2013-06-19 12:01:00,67.0,36.0,29.77,SW,231,16.0,23.0,32,0.00,,,-99.99,975.000000,,2013-06-19 18:01:00,
2013-06-19 12:11:00,67.0,36.0,29.77,SW,219,18.0,26.0,32,0.00,,,-99.99,984.000000,,2013-06-19 18:11:00,
2013-06-19 12:23:00,67.0,37.0,29.78,SW,222,19.0,27.0,33,0.00,,,-99.99,1003.000000,,2013-06-19 18:23:00,
2013-06-19 12:33:00,66.0,37.0,29.78,SW,228,18.0,25.0,34,0.00,,,-99.99,1009.000000,,2013-06-19 18:33:00,
2013-06-19 12:43:00,66.0,35.0,29.78,SW,229,17.0,26.0,31,0.00,,,-99.99,1038.000000,,2013-06-19 18:43:00,
2013-06-19 12:52:00,66.0,36.0,29.79,SW,220,18.0,28.0,32,0.00,,,-99.99,1038.000000,,2013-06-19 18:52:00,
2013-06-19 13:01:00,66.0,39.0,29.79,SW,227,19.0,28.0,37,0.00,,,-99.99,999.000000,,2013-06-19 19:01:00,
2013-06-19 13:11:00,65.0,39.0,29.80,SW,228,21.0,27.0,37,0.00,,,-99.99,676.200012,,2013-06-19 19:11:00,
2013-06-19 13:22:00,65.0,38.0,29.80,SW,235,18.0,28.0,38,0.00,,,-99.99,550.400024,,2013-06-19 19:22:00,
2013-06-19 13:32:00,63.0,38.0,29.81,SW,236,17.0,33.0,40,0.00,,,-99.99,212.399994,,2013-06-19 19:32:00,
2013-06-19 13:43:00,61.0,37.0,29.82,WSW,243,18.0,34.0,40,0.00,,,-99.99,168.100006,,2013-06-19 19:43:00,
2013-06-19 13:52:00,60.0,34.0,29.84,SW,234,23.0,33.0,37,0.00,,,-99.99,240.399994,,2013-06-19 19:52:00,
2013-06-19 14:02:00,60.0,31.0,29.85,WSW,249,15.0,27.0,34,0.00,,,-99.99,303.500000,,2013-06-19 20:02:00,
2013-06-19 14:11:00,60.0,32.0,29.85,WSW,242,14.0,24.0,35,0.00,,,-99.99,921.000000,,2013-06-19 20:11:00,
2013-06-19 14:22:00,60.0,37.0,29.85,WSW,237,18.0,25.0,43,0.00,,,-99.99,1176.000000,,2013-06-19 20:22:00,
2013-06-19 14:33:00,60.0,36.0,29.88,SW,230,22.0,38.0,41,0.00,,,-99.99,673.900024,,2013-06-19 20:33:00,
2013-06-19 14:42:00,58.0,36.0,29.87,WSW,241,15.0,24.0,43,0.00,,,-99.99,757.500000,,2013-06-19 20:42:00,
2013-06-19 14:52:00,57.0,36.0,29.88,WSW,242,14.0,21.0,45,0.00,,,-99.99,454.299988,,2013-06-19 20:52:00,
2013-06-19 15:01:00,57.0,36.0,29.87,West,260,11.0,22.0,46,0.00,,,-99.99,402.799988,,2013-06-19 21:01:00,
2013-06-19 15:11:00,56.0,35.0,29.88,WSW,252,13.0,20.0,46,0.00,,,-99.99,114.500000,,2013-06-19 21:11:00,
2013-06-19 15:22:00,55.0,37.0,29.88,WSW,240,10.0,13.0,51,0.00,,,-99.99,577.200012,,2013-06-19 21:22:00,
2013-06-19 15:33:00,56.0,37.0,29.88,SW,233,9.0,12.0,49,0.00,,,-99.99,1056.000000,,2013-06-19 21:33:00,
2013-06-19 15:44:00,58.0,37.0,29.88,SW,218,9.0,14.0,46,0.00,,,-99.99,853.000000,,2013-06-19 21:44:00,
2013-06-19 15:52:00,59.0,36.0,29.88,SSW,199,11.0,15.0,43,0.00,,,-99.99,964.000000,,2013-06-19 21:52:00,
2013-06-19 16:01:00,60.0,36.0,29.89,SSW,204,11.0,19.0,40,0.00,,,-99.99,594.299988,,2013-06-19 22:01:00,
2013-06-19 16:11:00,60.0,36.0,29.89,SSW,201,10.0,15.0,40,0.00,,,-99.99,1025.000000,,2013-06-19 22:11:00,
2013-06-19 16:22:00,61.0,37.0,29.90,SSW,202,13.0,21.0,41,-99.99,,,-99.99,1011.000000,,2013-06-19 22:22:00,
2013-06-19 16:34:00,61.0,39.0,29.90,SW,222,14.0,21.0,45,-99.99,,,-99.99,357.200012,,2013-06-19 22:34:00,
2013-06-19 16:42:00,54.0,40.0,29.95,West,264,17.0,31.0,57,-99.99,,,-99.99,683.700012,,2013-06-19 22:42:00,
2013-06-19 16:53:00,54.0,38.0,29.96,WSW,248,15.0,31.0,53,-99.99,,,-99.99,270.700012,,2013-06-19 22:53:00,
2013-06-19 17:11:00,55.0,37.0,29.95,WSW,249,15.0,24.0,50,-99.99,,,-99.99,802.000000,,2013-06-19 23:11:00,
2013-06-19 17:33:00,54.0,37.0,29.96,WSW,248,10.0,19.0,52,-99.99,,,-99.99,111.500000,,2013-06-19 23:33:00,
2013-06-19 17:52:00,54.0,38.0,29.97,South,169,6.0,9.0,55,-99.99,,,-99.99,380.500000,,2013-06-19 23:52:00,
2013-06-19 18:22:00,56.0,38.0,29.97,South,183,6.0,15.0,49,-99.99,,,-99.99,663.299988,,2013-06-20 00:22:00,
2013-06-19 18:33:00,57.0,35.0,29.97,South,188,13.0,20.0,43,-99.99,,,-99.99,627.200012,,2013-06-20 00:33:00,
2013-06-19 18:43:00,60.0,31.0,29.97,SW,233,14.0,24.0,34,-99.99,,,-99.99,599.400024,,2013-06-20 00:43:00,
2013-06-19 18:52:00,60.0,30.0,29.97,SW,233,16.0,26.0,32,-99.99,,,-99.99,583.299988,,2013-06-20 00:52:00,
2013-06-19 19:01:00,59.0,31.0,29.98,SW,228,17.0,27.0,33,-99.99,,,-99.99,521.900024,,2013-06-20 01:01:00,
2013-06-19 19:11:00,58.0,33.0,29.98,SW,226,13.0,21.0,39,-99.99,,,-99.99,450.700012,,2013-06-20 01:11:00,
2013-06-19 19:22:00,57.0,33.0,29.99,SW,234,18.0,28.0,40,-99.99,,,-99.99,410.799988,,2013-06-20 01:22:00,
2013-06-19 19:33:00,57.0,33.0,29.98,SW,225,16.0,26.0,41,-99.99,,,-99.99,369.100006,,2013-06-20 01:33:00,
2013-06-19 19:52:00,56.0,34.0,29.98,WSW,242,15.0,27.0,43,-99.99,,,-99.99,324.299988,,2013-06-20 01:52:00,
2013-06-19 20:02:00,56.0,35.0,29.99,WSW,237,15.0,23.0,46,-99.99,,,-99.99,272.600006,,2013-06-20 02:02:00,
2013-06-19 20:33:00,55.0,35.0,30.01,SW,219,14.0,26.0,47,-99.99,,,-99.99,207.500000,,2013-06-20 02:33:00,
2013-06-19 20:43:00,55.0,35.0,30.01,SW,223,14.0,24.0,46,-99.99,,,-99.99,201.000000,,2013-06-20 02:43:00,
2013-06-19 21:22:00,53.0,36.0,30.02,SW,220,13.0,22.0,51,-99.99,,,-99.99,14.000000,,2013-06-20 03:22:00,
2013-06-19 21:33:00,53.0,36.0,30.03,SW,223,14.0,21.0,51,-99.99,,,-99.99,5.200000,,2013-06-20 03:33:00,
2013-06-19 21:43:00,53.0,35.0,30.03,SW,221,13.0,20.0,50,-99.99,,,-99.99,2.400000,,2013-06-20 03:43:00,
2013-06-19 22:11:00,52.0,35.0,30.03,SW,224,12.0,18.0,51,-99.99,,,-99.99,0.000000,,2013-06-20 04:11:00,
2013-06-19 22:22:00,52.0,35.0,30.04,SSW,213,12.0,17.0,52,-99.99,,,-99.99,-0.100000,,2013-06-20 04:22:00,
2013-06-19 22:53:00,50.0,36.0,30.05,SW,235,13.0,19.0,59,-99.99,,,-99.99,-0.100000,,2013-06-20 04:53:00,
2013-06-19 23:33:00,48.0,37.0,30.06,SW,218,10.0,15.0,65,-99.99,,,-99.99,-0.100000,,2013-06-20 05:33:00,
2013-06-19 23:52:00,47.0,37.0,30.06,SSW,212,9.0,14.0,67,-99.99,,,-99.99,-0.100000,,2013-06-20 05:52:00,